Regional Weather Roundup
Issued by NWS Green Bay, WI

Home | Current Version | Previous Version | Text Only | Print | Product List | Glossary On
Versions: 1 2 3 4 5 6 7 8 9 10 11 12 13 14 15 16 17 18 19 20 21 22 23 24 25 26 27 28 29 30 31 32 33 34 35 36 37 38 39 40 41 42 43 44 45 46 47 48 49 50
000
ASUS43 KGRB 220510
RWRGRB

NORTH-CENTRAL AND NORTHEAST WISCONSIN REGIONAL WEATHER ROUNDUP
NATIONAL WEATHER SERVICE GREEN BAY WI
1100 PM CST SUN DEC 21 2014

WIZ005-009-010>012-018-019-220600-
NORTH CENTRAL WISCONSIN

CITY           SKY/WX    TMP DP  RH WIND       PRES   REMARKS
IRONWOOD       CLOUDY    36  32  87 SE5       29.77S
MANITOWISH WTR LGT SNOW  32  32 100 S8        29.81S
ARBOR VITAE    LGT SNOW  34  32  93 S10       29.82S
EAGLE RIVER    LGT SNOW  32  32 100 S8        29.83S
LAND O LAKES   LGT SNOW  33  32  96 S6        29.84R
RHINELANDER    CLOUDY    33  30  88 S10       29.84S
PHILLIPS       CLOUDY    33  32  99 S10       29.80S FOG
ANTIGO         LGT SNOW  31  31  99 S12       29.88R
TOMAHAWK       CLOUDY    32  32  99 S6        29.84S FOG
MERRILL        CLOUDY    33  33  99 S7        29.86S FOG
$$

WIZ013-073-220600-
NORTHEAST WISCONSIN

CITY           SKY/WX    TMP DP  RH WIND       PRES   REMARKS
IRON MOUNTAIN  LGT SNOW  33  31  92 S10       29.89F FOG
MARINETTE      CLOUDY    36  30  80 S13G22    29.96S
OCONTO         CLOUDY    35  32  88 S10       29.98R
$$

WIZ017-030-035>037-045-220600-
CENTRAL WISCONSIN

CITY           SKY/WX    TMP DP  RH WIND       PRES   REMARKS
MEDFORD        DRIZZLE   32  32  99 S13       29.83R
WAUSAU         LGT SNOW  33  32  96 S14       29.86S FOG
MOSINEE        MIX PCPN  32  32 100 S14       29.87F
MARSHFIELD     CLOUDY    34  32  92 S14       29.85S FOG
WISC RAPIDS    CLOUDY    35  30  82 S9G22     29.90S
STEVENS POINT  CLOUDY    32  30  93 S10       29.89S FOG
WAUPACA        CLOUDY    37  31  81 S10       29.94S
SHAWANO        CLOUDY    37  31  81 S10G16    29.95S
CLINTONVILLE   CLOUDY    34  30  86 S12       29.94S
$$

WIZ038-039-048-051-220600-
FOX VALLEY

CITY           SKY/WX    TMP DP  RH WIND       PRES   REMARKS
NWS GREEN BAY  CLOUDY    36  30  79 S14       29.97S
APPLETON       CLOUDY    34  30  86 S12G21    29.96S
OSHKOSH        CLOUDY    35  29  78 S13       29.96F
FOND DU LAC    CLOUDY    35  29  78 S15       29.97F
$$

WIZ022-050-052-220600-
EAST CENTRAL WISCONSIN

CITY           SKY/WX    TMP DP  RH WIND       PRES   REMARKS
STURGEON BAY   CLOUDY    36  32  87 S17G24    30.00S
MANITOWOC      CLOUDY    37  32  82 S16       30.01S
SHEBOYGAN      CLOUDY    36  30  79 S16       30.00F
$$

LMZ563-521-522-541>543-220600-
LAKESHORE

STATION/POSITION TIME  TEMP    WIND        PRES    VSBY  WAVE
                       AIR SEA DIR/SP/G                  HT/PER
                 (UTC) (F)     (DEG/KT/KT) (MB)    (MI)  (FT/S)
SHEBOYGAN LKSHOR 0500   38 36  190/ 21/ 24 1016.8F
KEWAUNEE LKSHORE 0500   37     190/ 20/ 23 1015.3S
ALGOMA MARINA    0500          220/ 27/ 32   N/A
TWO RIVERS CG    0400   37 36              1019.2          4
NORTHPORT PIER   0500   36     150/ 13/ 19 1015.9S
SISTER BAY LKSHO 0500          180/ 17/ 24   N/A
CHAMBERS ISLAND  0500   37     140/  6/ 14 1015.6S
MENOMINEE LKSHOR 0500   36     170/ 14/ 19 1015.5R
$$



USA.gov is the U.S. government's official web portal to all federal, state and local government web resources and services.